Total_Precipitation_Accumulation
0.57 0.75 0.79 0.71 0.73 0.80 0.70 0.65 0.75 0.76 0.64 0.77 0.72 0.55 0.45 0.40 0.39 0.41 0.47 0.48 0.44 0.34 0.22 0.15 0.15 0.21 0.27 0.26 0.24 0.29 0.33 0.39 0.38 0.33 0.39 0.53 0.66 0.78 0.92 1.11 1.14 1.37 1.50 1.43
0.66 0.56 0.41 0.46 0.52 0.63 0.65 0.69 0.72 0.67 0.58 0.67 0.72 0.59 0.46 0.36 0.32 0.34 0.37 0.40 0.38 0.30 0.20 0.15 0.12 0.14 0.20 0.23 0.18 0.19 0.23 0.32 0.38 0.41 0.46 0.60 0.80 0.92 1.03 1.21 1.26 1.35 1.39 1.39
0.48 0.39 0.33 0.38 0.44 0.57 0.59 0.66 0.63 0.65 0.68 0.62 0.70 0.76 0.57 0.40 0.35 0.34 0.33 0.34 0.32 0.23 0.19 0.17 0.14 0.12 0.13 0.17 0.14 0.17 0.25 0.38 0.53 0.69 0.93 1.18 1.48 1.65 1.57 1.46 1.52 1.62 1.68 1.63
0.58 0.39 0.34 0.39 0.43 0.50 0.66 0.45 0.44 0.52 0.74 0.75 0.62 0.82 0.59 0.41 0.40 0.40 0.36 0.31 0.27 0.24 0.21 0.18 0.16 0.15 0.15 0.21 0.26 0.36 0.48 0.63 0.78 0.98 1.21 1.47 1.73 1.93 1.97 2.02 2.06 2.03 1.96 1.84
0.63 0.40 0.36 0.41 0.37 0.39 0.52 0.44 0.42 0.49 0.66 0.64 0.57 0.60 0.52 0.42 0.48 0.49 0.47 0.41 0.36 0.34 0.32 0.31 0.30 0.27 0.27 0.37 0.51 0.61 0.84 0.99 1.12 1.18 1.27 1.49 1.59 1.68 1.80 1.97 2.03 2.04 1.98 1.86
0.52 0.36 0.34 0.35 0.31 0.33 0.43 0.51 0.55 0.61 0.69 0.65 0.45 0.45 0.54 0.44 0.49 0.58 0.55 0.47 0.42 0.39 0.37 0.40 0.44 0.44 0.46 0.67 0.90 1.02 1.13 1.23 1.21 1.18 1.20 1.32 1.46 1.56 1.66 1.83 1.90 1.85 1.75 1.71
0.49 0.41 0.32 0.31 0.37 0.35 0.42 0.62 0.79 0.81 0.73 0.52 0.29 0.35 0.46 0.36 0.34 0.42 0.45 0.42 0.38 0.32 0.32 0.38 0.46 0.59 0.77 1.00 1.21 1.34 1.34 1.25 1.10 1.06 1.13 1.18 1.33 1.50 1.56 1.58 1.60 1.60 1.55 1.49
0.41 0.46 0.31 0.27 0.30 0.32 0.36 0.45 0.68 0.75 0.63 0.44 0.32 0.47 0.49 0.36 0.27 0.24 0.24 0.27 0.32 0.36 0.42 0.45 0.51 0.68 0.96 1.21 1.45 1.71 1.68 1.46 1.24 1.16 1.21 1.24 1.34 1.41 1.41 1.33 1.34 1.37 1.34 1.29
0.30 0.32 0.26 0.27 0.27 0.28 0.34 0.34 0.35 0.52 0.45 0.41 0.36 0.42 0.38 0.26 0.21 0.20 0.22 0.27 0.37 0.43 0.52 0.62 0.74 0.82 1.02 1.24 1.57 1.85 1.90 1.70 1.54 1.45 1.36 1.36 1.28 1.21 1.14 1.05 1.05 1.07 1.10 1.05
0.27 0.32 0.30 0.29 0.33 0.29 0.27 0.29 0.32 0.53 0.61 0.57 0.41 0.42 0.35 0.23 0.18 0.20 0.30 0.36 0.43 0.51 0.53 0.69 0.95 1.16 1.38 1.32 1.46 1.71 1.66 1.58 1.56 1.57 1.53 1.41 1.26 1.14 1.10 1.03 1.02 0.98 1.03 0.96
0.21 0.31 0.35 0.32 0.29 0.25 0.25 0.28 0.30 0.41 0.44 0.59 0.66 0.55 0.32 0.27 0.28 0.33 0.42 0.44 0.49 0.57 0.61 0.76 0.94 1.10 1.27 1.36 1.36 1.42 1.42 1.43 1.41 1.34 1.29 1.15 0.94 0.82 0.83 0.84 0.83 0.77 0.79 0.75
0.19 0.28 0.35 0.28 0.21 0.23 0.29 0.31 0.33 0.52 0.53 0.52 0.74 0.76 0.43 0.41 0.45 0.54 0.61 0.65 0.69 0.70 0.73 0.84 0.92 1.06 1.15 1.14 1.18 1.26 1.20 1.19 1.15 1.05 0.95 0.82 0.69 0.63 0.65 0.65 0.62 0.54 0.56 0.53
0.21 0.34 0.43 0.40 0.32 0.30 0.43 0.47 0.38 0.36 0.49 0.62 0.82 0.80 0.59 0.60 0.66 0.76 0.86 0.87 0.82 0.76 0.73 0.79 0.83 0.92 0.98 1.04 1.10 1.19 1.13 1.13 1.12 0.97 0.82 0.75 0.69 0.66 0.64 0.57 0.52 0.43 0.41 0.46
0.21 0.31 0.31 0.32 0.29 0.30 0.48 0.54 0.44 0.42 0.58 0.60 0.63 0.73 0.75 0.85 0.87 0.89 0.89 0.87 0.77 0.66 0.57 0.52 0.51 0.60 0.66 0.72 0.81 0.92 0.90 1.10 1.24 1.15 0.95 0.84 0.77 0.67 0.58 0.48 0.44 0.39 0.44 0.49
0.20 0.27 0.22 0.15 0.13 0.17 0.29 0.36 0.33 0.37 0.41 0.46 0.48 0.57 0.72 0.83 0.87 0.84 0.75 0.60 0.51 0.44 0.35 0.29 0.30 0.36 0.42 0.52 0.57 0.65 0.79 1.02 1.07 0.87 0.66 0.58 0.56 0.52 0.43 0.38 0.36 0.34 0.34 0.33
0.18 0.24 0.21 0.17 0.11 0.12 0.13 0.12 0.13 0.15 0.20 0.25 0.33 0.48 0.57 0.60 0.60 0.55 0.44 0.31 0.28 0.26 0.22 0.19 0.20 0.25 0.27 0.30 0.39 0.52 0.59 0.64 0.63 0.55 0.45 0.41 0.36 0.31 0.30 0.29 0.27 0.24 0.21 0.18
0.19 0.24 0.31 0.27 0.13 0.14 0.12 0.07 0.10 0.16 0.18 0.26 0.39 0.46 0.41 0.39 0.37 0.35 0.26 0.17 0.17 0.15 0.14 0.13 0.14 0.19 0.19 0.22 0.24 0.24 0.29 0.36 0.35 0.28 0.24 0.24 0.25 0.22 0.20 0.20 0.20 0.20 0.19 0.16
0.16 0.25 0.35 0.33 0.28 0.25 0.09 0.05 0.07 0.12 0.16 0.24 0.32 0.32 0.25 0.22 0.19 0.18 0.14 0.11 0.11 0.11 0.10 0.10 0.11 0.15 0.16 0.19 0.21 0.22 0.21 0.24 0.27 0.22 0.18 0.17 0.20 0.20 0.21 0.23 0.22 0.19 0.16 0.15
0.11 0.24 0.39 0.38 0.39 0.20 0.07 0.05 0.06 0.07 0.09 0.10 0.12 0.12 0.10 0.08 0.10 0.12 0.10 0.10 0.10 0.10 0.10 0.11 0.14 0.16 0.18 0.20 0.22 0.18 0.16 0.17 0.19 0.19 0.19 0.18 0.19 0.20 0.19 0.18 0.18 0.17 0.15 0.14
0.15 0.21 0.35 0.38 0.40 0.26 0.11 0.07 0.06 0.08 0.10 0.07 0.06 0.06 0.06 0.06 0.12 0.13 0.10 0.08 0.09 0.11 0.11 0.13 0.16 0.20 0.20 0.19 0.19 0.18 0.16 0.16 0.15 0.17 0.20 0.22 0.21 0.18 0.17 0.19 0.21 0.18 0.16 0.16
0.21 0.24 0.27 0.34 0.39 0.20 0.08 0.08 0.08 0.14 0.13 0.07 0.06 0.05 0.06 0.08 0.10 0.09 0.09 0.09 0.09 0.13 0.15 0.14 0.17 0.18 0.18 0.19 0.20 0.19 0.17 0.18 0.17 0.17 0.19 0.19 0.18 0.17 0.19 0.21 0.24 0.23 0.20 0.18
0.25 0.28 0.27 0.31 0.36 0.19 0.07 0.09 0.11 0.11 0.07 0.06 0.06 0.06 0.06 0.07 0.07 0.07 0.08 0.08 0.08 0.11 0.13 0.14 0.15 0.15 0.17 0.17 0.18 0.16 0.15 0.19 0.18 0.16 0.17 0.17 0.17 0.19 0.22 0.22 0.21 0.19 0.18 0.17
0.21 0.22 0.25 0.25 0.19 0.11 0.10 0.10 0.10 0.09 0.08 0.05 0.05 0.06 0.06 0.06 0.07 0.07 0.07 0.07 0.08 0.10 0.11 0.12 0.14 0.15 0.17 0.20 0.19 0.19 0.18 0.19 0.17 0.15 0.17 0.19 0.21 0.24 0.25 0.24 0.22 0.20 0.19 0.19
0.18 0.17 0.22 0.20 0.11 0.08 0.10 0.11 0.10 0.09 0.08 0.07 0.06 0.07 0.09 0.10 0.10 0.09 0.08 0.08 0.09 0.10 0.11 0.13 0.15 0.17 0.18 0.22 0.23 0.23 0.22 0.20 0.18 0.16 0.18 0.21 0.23 0.26 0.27 0.25 0.22 0.21 0.19 0.22
0.20 0.18 0.21 0.19 0.13 0.11 0.09 0.09 0.08 0.07 0.07 0.08 0.09 0.08 0.11 0.12 0.11 0.12 0.11 0.11 0.11 0.10 0.10 0.12 0.14 0.15 0.18 0.20 0.20 0.21 0.20 0.19 0.17 0.18 0.21 0.25 0.25 0.27 0.28 0.26 0.25 0.25 0.25 0.28
0.19 0.20 0.24 0.23 0.19 0.19 0.15 0.12 0.09 0.09 0.11 0.10 0.12 0.10 0.10 0.10 0.11 0.12 0.13 0.16 0.15 0.13 0.13 0.13 0.15 0.16 0.16 0.16 0.16 0.16 0.18 0.18 0.18 0.19 0.22 0.25 0.26 0.28 0.29 0.31 0.30 0.32 0.31 0.32